TimeCDT,TemperatureF,Dew PointF,Humidity,Sea Level PressureIn,VisibilityMPH,Wind Direction,Wind SpeedMPH,Gust SpeedMPH,PrecipitationIn,Events,Conditions,WindDirDegrees,DateUTC
12:52 AM,59.0,54.0,83,30.14,-9999.0,Calm,Calm,-,N/A,,Unknown,0,2013-08-18 05:52:00
1:52 AM,57.0,53.1,87,30.14,-9999.0,Calm,Calm,-,N/A,,Unknown,0,2013-08-18 06:52:00
2:52 AM,57.0,53.1,87,30.14,-9999.0,Calm,Calm,-,N/A,,Unknown,0,2013-08-18 07:52:00
3:52 AM,55.9,52.0,87,30.14,-9999.0,Calm,Calm,-,N/A,,Unknown,0,2013-08-18 08:52:00
4:52 AM,55.0,52.0,89,30.15,-9999.0,Calm,Calm,-,N/A,,Unknown,0,2013-08-18 09:52:00
5:52 AM,55.0,52.0,89,30.16,-9999.0,Calm,Calm,-,N/A,,Unknown,0,2013-08-18 10:52:00
6:52 AM,54.0,51.1,90,30.17,-9999.0,Calm,Calm,-,N/A,,Unknown,0,2013-08-18 11:52:00
7:52 AM,60.1,55.0,83,30.18,-9999.0,Calm,Calm,-,N/A,,Unknown,0,2013-08-18 12:52:00
8:52 AM,66.9,57.9,73,30.19,-9999.0,Calm,Calm,-,N/A,,Unknown,0,2013-08-18 13:52:00
9:52 AM,72.0,60.1,66,30.19,-9999.0,SSE,3.5,-,N/A,,Unknown,150,2013-08-18 14:52:00
10:52 AM,75.0,59.0,57,30.18,-9999.0,Variable,3.5,-,N/A,,Unknown,0,2013-08-18 15:52:00
11:52 AM,78.1,59.0,52,30.16,-9999.0,South,5.8,-,N/A,,Unknown,190,2013-08-18 16:52:00
12:52 PM,80.1,57.0,45,30.14,-9999.0,ESE,4.6,-,N/A,,Unknown,110,2013-08-18 17:52:00
1:52 PM,79.0,57.9,48,30.13,-9999.0,Variable,3.5,-,N/A,,Unknown,0,2013-08-18 18:52:00
2:52 PM,82.0,59.0,45,30.11,-9999.0,Variable,4.6,-,N/A,,Unknown,0,2013-08-18 19:52:00
3:52 PM,82.0,57.9,44,30.09,-9999.0,South,4.6,-,N/A,,Unknown,190,2013-08-18 20:52:00
4:52 PM,82.0,57.9,44,30.08,-9999.0,Variable,5.8,-,N/A,,Unknown,0,2013-08-18 21:52:00
5:52 PM,82.0,59.0,45,30.08,-9999.0,South,5.8,-,N/A,,Unknown,180,2013-08-18 22:52:00
6:52 PM,80.1,61.0,52,30.09,-9999.0,South,4.6,-,N/A,,Unknown,190,2013-08-18 23:52:00
7:52 PM,75.0,62.1,64,30.08,-9999.0,Calm,Calm,-,N/A,,Unknown,0,2013-08-19 00:52:00
8:52 PM,69.1,62.1,78,30.09,-9999.0,Calm,Calm,-,N/A,,Unknown,0,2013-08-19 01:52:00
9:52 PM,66.0,61.0,84,30.10,-9999.0,Calm,Calm,-,N/A,,Unknown,0,2013-08-19 02:52:00
10:52 PM,64.9,60.1,84,30.10,-9999.0,Calm,Calm,-,N/A,,Unknown,0,2013-08-19 03:52:00
11:52 PM,63.0,59.0,87,30.11,-9999.0,Calm,Calm,-,N/A,,Unknown,0,2013-08-19 04:52:00